This is the latest recevied weather packets stored in our database for station/object OK0EK-12. If no packets are shown the sender has not sent any weather packets the latest 10 day(s).
| Time | Temp. | Humidity | Pressure | Rain* | Wind** | Luminosity | Snow |
|---|---|---|---|---|---|---|---|
| 1777594472 | 5° C | 63% | 1107.7 hPa | - | - | - | - |
| 1777593872 | 4.44° C | 64% | 1107.8 hPa | - | - | - | - |
| 1777593272 | 4.44° C | 63% | 1107.8 hPa | - | - | - | - |
| 1777592672 | 4.44° C | 63% | 1107.9 hPa | - | - | - | - |
| 1777592072 | 4.44° C | 64% | 1107.9 hPa | - | - | - | - |
| 1777591471 | 4.44° C | 63% | 1108 hPa | - | - | - | - |
| 1777590871 | 4.44° C | 64% | 1108 hPa | - | - | - | - |
| 1777590271 | 4.44° C | 64% | 1108 hPa | - | - | - | - |
| 1777589671 | 4.44° C | 63% | 1108 hPa | - | - | - | - |
| 1777589071 | 4.44° C | 64% | 1107.9 hPa | - | - | - | - |
| 1777588468 | 3.89° C | 66% | 1107.9 hPa | - | - | - | - |
| 1777587871 | 3.89° C | 66% | 1108 hPa | - | - | - | - |
| 1777587271 | 3.33° C | 66% | 1108 hPa | - | - | - | - |
| 1777586673 | 3.33° C | 67% | 1108.1 hPa | - | - | - | - |
| 1777586075 | 2.78° C | 67% | 1108.1 hPa | - | - | - | - |
| 1777585484 | 3.33° C | 66% | 1108.2 hPa | - | - | - | - |
| 1777584886 | 3.33° C | 65% | 1108.2 hPa | - | - | - | - |
| 1777584281 | 3.33° C | 65% | 1108.2 hPa | - | - | - | - |
| 1777583681 | 3.33° C | 66% | 1108.1 hPa | - | - | - | - |
| 1777583082 | 3.33° C | 66% | 1107.9 hPa | - | - | - | - |
| 1777582481 | 3.33° C | 65% | 1107.9 hPa | - | - | - | - |
| 1777581881 | 3.89° C | 64% | 1107.8 hPa | - | - | - | - |
| 1777581281 | 3.89° C | 63% | 1107.7 hPa | - | - | - | - |
| 1777580680 | 3.89° C | 64% | 1107.8 hPa | - | - | - | - |
| 1777580080 | 3.89° C | 66% | 1107.8 hPa | - | - | - | - |
* Rain since midnight (hover to see other rain measurements)
** Current wind speed in m/s (hover to see current wind gust speed)